Location: Santiago
(33.4378°S, 70.6505°W)
Time: 20:19:35
(UTC+00:00)

ISS - Pass Details

Date: 11 May 2026
Orbit: 414 x 424 km, 51.6° (Epoch: 10 May)

Event Time Altitude Azimuth Distance (km) Brightness Sun altitude
Rises 11:03:03 0° 331° (NNW) 2,370 -0.1 -5.0°
Reaches altitude 10° 11:05:13 10° 339° (NNW) 1,513 -0.9 -4.5°
Maximum altitude 11:08:25 39° 48° (NE) 662 -2.0 -3.9°
Drops below altitude 10° 11:11:39 10° 118° (ESE) 1,532 -0.2 -3.3°
Sets 11:13:51 0° 126° (SE) 2,405 0.6 -2.8°
